| time (UTC) | temp F | wind direction | speed knots | gust knots | rain 1hr in | rain 24hr in | rain mn in | humidity % | barometer mb |
| 20260903073115 | 64 | 263 | 0.0 | 0.0 | 0.00 | 0.00 | 0.00 | 77 | 1019.6 |
| 20260903071505 | 61 | 260 | 0.0 | 0.0 | 0.00 | 0.00 | 0.00 | 83 | 1019.9 |
| 20260903070039 | 58 | 235 | 0.0 | 0.0 | 0.00 | 0.00 | 0.00 | 90 | 1019.9 |
| 20260903063104 | 55 | 267 | 0.0 | 0.0 | 0.00 | 0.00 | 0.00 | 93 | 1019.9 |
| 20260903060056 | 54 | 211 | 0.0 | 0.0 | 0.00 | 0.00 | 0.00 | 95 | 1020.0 |
| 20260903054626 | 53 | 211 | 0.0 | 0.0 | 0.00 | 0.00 | 0.00 | 95 | 1020.0 |
| 20260903053046 | 52 | 214 | 0.0 | 0.0 | 0.00 | 0.00 | 0.00 | 95 | 1019.7 |
| 20260903051634 | 52 | 214 | 0.0 | 0.0 | 0.00 | 0.00 | 0.00 | 95 | 1019.8 |
| 20260903050038 | 53 | 214 | 0.0 | 0.0 | 0.00 | 0.00 | 0.00 | 94 | 1019.7 |
| 20260903044628 | 53 | 214 | 0.0 | 0.0 | 0.00 | 0.00 | 0.00 | 94 | 1019.5 |
| 20260903043112 | 53 | 214 | 0.0 | 0.0 | 0.00 | 0.00 | 0.00 | 94 | 1019.3 |
| 20260903041552 | 54 | 214 | 0.0 | 0.0 | 0.00 | 0.00 | 0.00 | 94 | 1019.3 |
| 20260903040012 | 54 | 214 | 0.0 | 0.0 | 0.00 | 0.00 | 0.00 | 93 | 1019.3 |
| 20260903034552 | 54 | 213 | 0.0 | 0.0 | 0.00 | 0.00 | 0.00 | 93 | 1019.3 |
| 20260903033129 | 54 | 252 | 0.0 | 0.0 | 0.00 | 0.00 | 0.00 | 94 | 1019.3 |
| 20260903031555 | 54 | 254 | 0.0 | 0.0 | 0.00 | 0.00 | 0.00 | 94 | 1019.2 |
| 20260903030130 | 53 | 253 | 0.0 | 0.0 | 0.00 | 0.00 | 0.00 | 93 | 1019.4 |
| 20260903024540 | 54 | 248 | 0.0 | 0.0 | 0.00 | 0.00 | 0.00 | 93 | 1019.3 |
| 20260903023138 | 54 | 248 | 0.0 | 0.0 | 0.00 | 0.00 | 0.00 | 93 | 1019.3 |
| 20260903021533 | 54 | 248 | 0.0 | 0.0 | 0.00 | 0.00 | 0.00 | 92 | 1019.3 |
| 20260903020013 | 54 | 248 | 0.0 | 0.0 | 0.00 | 0.00 | 0.00 | 92 | 1019.2 |
| 20260903014616 | 55 | 248 | 0.0 | 0.0 | 0.00 | 0.00 | 0.00 | 91 | 1019.3 |
| 20260903013042 | 56 | 248 | 0.0 | 0.0 | 0.00 | 0.00 | 0.00 | 91 | 1019.1 |
| 20260903011616 | 56 | 248 | 0.0 | 0.0 | 0.00 | 0.00 | 0.00 | 90 | 1019.2 |
| 20260903010032 | 57 | 248 | 0.0 | 0.0 | 0.00 | 0.00 | 0.00 | 89 | 1019.2 |
| 20260903004613 | 57 | 248 | 0.0 | 0.0 | 0.00 | 0.00 | 0.00 | 89 | 1019.2 |
| 20260903003107 | 58 | 248 | 0.0 | 0.0 | 0.00 | 0.00 | 0.00 | 89 | 1019.2 |
| 20260903001524 | 58 | 248 | 0.0 | 0.0 | 0.00 | 0.00 | 0.00 | 89 | 1019.1 |
| 20260903000113 | 58 | 248 | 0.0 | 0.0 | 0.00 | 0.00 | 0.00 | 89 | 1019.1 |
| 20260902234532 | 58 | 248 | 0.0 | 0.0 | 0.00 | 0.00 | 0.00 | 88 | 1019.1 |
| 20260902233127 | 58 | 248 | 0.0 | 0.0 | 0.00 | 0.00 | 0.00 | 88 | 1019.1 |
| 20260902231544 | 59 | 248 | 0.0 | 0.0 | 0.00 | 0.00 | 0.00 | 88 | 1019.2 |
| 20260902230120 | 58 | 248 | 0.0 | 0.0 | 0.00 | 0.00 | 0.00 | 87 | 1019.2 |
| 20260902224529 | 59 | 248 | 0.0 | 0.0 | 0.00 | 0.00 | 0.00 | 86 | 1019.1 |
| 20260902223120 | 59 | 248 | 0.0 | 0.0 | 0.00 | 0.00 | 0.00 | 85 | 1019.1 |
| 20260902221516 | 59 | 248 | 0.0 | 0.0 | 0.00 | 0.00 | 0.00 | 85 | 1019.0 |
| 20260902220113 | 60 | 248 | 0.0 | 0.0 | 0.00 | 0.00 | 0.00 | 84 | 1018.9 |
| 20260902214526 | 60 | 248 | 0.0 | 0.0 | 0.00 | 0.00 | 0.00 | 85 | 1018.9 |
| 20260902213121 | 61 | 257 | 0.0 | 0.9 | 0.00 | 0.00 | 0.00 | 84 | 1018.8 |
| 20260902211528 | 61 | 254 | 0.0 | 0.0 | 0.00 | 0.00 | 0.00 | 82 | 1018.7 |
| 20260902210113 | 62 | 259 | 0.0 | 0.9 | 0.00 | 0.00 | 0.00 | 81 | 1018.5 |
| 20260902204537 | 63 | 290 | 0.0 | 1.7 | 0.00 | 0.00 | 0.00 | 77 | 1018.5 |
| 20260902203118 | 66 | 248 | 3.5 | 7.8 | 0.00 | 0.00 | 0.00 | 67 | 1018.3 |
| 20260902201534 | 65 | 221 | 3.5 | 6.1 | 0.00 | 0.00 | 0.00 | 70 | 1018.4 |
| 20260902200124 | 65 | 242 | 0.0 | 7.8 | 0.00 | 0.00 | 0.00 | 72 | 1018.5 |
| 20260902194527 | 65 | 94 | 0.0 | 1.7 | 0.00 | 0.00 | 0.00 | 72 | 1018.4 |
| 20260902193118 | 67 | 220 | 2.6 | 9.6 | 0.00 | 0.00 | 0.00 | 67 | 1018.2 |
| 20260902191511 | 67 | 186 | 0.0 | 5.2 | 0.00 | 0.00 | 0.00 | 67 | 1018.2 |
| 20260902190114 | 66 | 173 | 0.0 | 0.9 | 0.00 | 0.00 | 0.00 | 69 | 1018.0 |
| 20260902184532 | 67 | 243 | 0.0 | 3.5 | 0.00 | 0.00 | 0.00 | 69 | 1017.8 |
| 20260902183123 | 67 | 196 | 0.0 | 4.3 | 0.00 | 0.00 | 0.00 | 68 | 1017.5 |
| 20260902181542 | 68 | 199 | 0.0 | 7.0 | 0.00 | 0.00 | 0.00 | 64 | 1017.3 |
| 20260902180128 | 69 | 40 | 0.0 | 0.9 | 0.00 | 0.00 | 0.00 | 63 | 1017.2 |
| 20260902174556 | 69 | 234 | 0.0 | 1.7 | 0.00 | 0.00 | 0.00 | 63 | 1016.9 |
| 20260902173002 | 70 | 304 | 0.9 | 3.5 | 0.00 | 0.00 | 0.00 | 60 | 1016.7 |
| 20260902171608 | 71 | 257 | 0.9 | 5.2 | 0.00 | 0.00 | 0.00 | 59 | 1016.4 |
| 20260902170042 | 72 | 206 | 0.0 | 0.9 | 0.00 | 0.00 | 0.00 | 61 | 1016.1 |
| 20260902164615 | 71 | 291 | 0.0 | 2.6 | 0.00 | 0.00 | 0.00 | 60 | 1016.0 |
| 20260902163027 | 72 | 225 | 0.0 | 1.7 | 0.00 | 0.00 | 0.00 | 61 | 1015.9 |
| 20260902161620 | 73 | 261 | 0.9 | 3.5 | 0.00 | 0.00 | 0.00 | 59 | 1015.8 |
| 20260902160106 | 74 | 206 | 0.0 | 2.6 | 0.00 | 0.00 | 0.00 | 61 | 1015.6 |
| 20260902154531 | 75 | 233 | 0.0 | 2.6 | 0.00 | 0.00 | 0.00 | 59 | 1015.5 |
| 20260902153124 | 76 | 173 | 0.0 | 1.7 | 0.00 | 0.00 | 0.00 | 57 | 1015.6 |
| 20260902151558 | 74 | 217 | 0.0 | 0.9 | 0.00 | 0.00 | 0.00 | 59 | 1015.7 |
| 20260902150137 | 76 | 252 | 0.0 | 1.7 | 0.00 | 0.00 | 0.00 | 53 | 1015.7 |
| 20260902144530 | 77 | 282 | 0.0 | 3.5 | 0.00 | 0.00 | 0.00 | 52 | 1015.8 |
| 20260902143125 | 76 | 306 | 2.6 | 6.1 | 0.00 | 0.00 | 0.00 | 53 | 1016.0 |
| 20260902141609 | 76 | 300 | 3.5 | 7.0 | 0.00 | 0.00 | 0.00 | 52 | 1015.8 |
| 20260902140158 | 76 | 325 | 2.6 | 11.3 | 0.00 | 0.00 | 0.00 | 52 | 1016.0 |
| 20260902134555 | 75 | 296 | 3.5 | 9.6 | 0.00 | 0.00 | 0.00 | 52 | 1015.9 |
| 20260902133133 | 75 | 290 | 0.9 | 5.2 | 0.00 | 0.00 | 0.00 | 54 | 1015.9 |
| 20260902131533 | 75 | 340 | 5.2 | 10.4 | 0.00 | 0.00 | 0.00 | 51 | 1016.0 |
| 20260902130114 | 76 | 285 | 2.6 | 7.8 | 0.00 | 0.00 | 0.00 | 52 | 1015.9 |
| 20260902124526 | 75 | 319 | 1.7 | 9.6 | 0.00 | 0.00 | 0.00 | 55 | 1016.1 |
| 20260902123120 | 76 | 331 | 1.7 | 8.7 | 0.00 | 0.00 | 0.00 | 61 | 1016.1 |
| 20260902121525 | 75 | 296 | 3.5 | 8.7 | 0.00 | 0.00 | 0.00 | 56 | 1016.4 |
| 20260902120117 | 76 | 216 | 0.0 | 1.7 | 0.00 | 0.00 | 0.00 | 58 | 1016.3 |
| 20260902114609 | 77 | 202 | 0.0 | 0.9 | 0.00 | 0.00 | 0.00 | 58 | 1016.5 |
| 20260902113118 | 76 | 207 | 0.0 | 2.6 | 0.00 | 0.00 | 0.00 | 52 | 1016.8 |
| 20260902111609 | 76 | 29 | 0.0 | 1.7 | 0.00 | 0.00 | 0.00 | 55 | 1016.9 |
| 20260902110029 | 75 | 47 | 0.0 | 3.5 | 0.00 | 0.00 | 0.00 | 58 | 1017.1 |
| 20260902104614 | 74 | 30 | 0.0 | 3.5 | 0.00 | 0.00 | 0.00 | 59 | 1017.3 |
| 20260902103023 | 74 | 42 | 0.0 | 4.3 | 0.00 | 0.00 | 0.00 | 61 | 1017.6 |
| 20260902100025 | 72 | 24 | 0.9 | 5.2 | 0.00 | 0.00 | 0.00 | 60 | 1018.1 |
| 20260902094619 | 72 | 24 | 0.0 | 1.7 | 0.00 | 0.00 | 0.00 | 65 | 1018.2 |
| 20260902093159 | 70 | 277 | 0.0 | 0.9 | 0.00 | 0.00 | 0.00 | 67 | 1018.3 |
| 20260902090059 | 67 | 254 | 0.0 | 0.9 | 0.00 | 0.00 | 0.00 | 74 | 1018.7 |
| 20260902084630 | 66 | 254 | 0.0 | 0.9 | 0.00 | 0.00 | 0.00 | 75 | 1018.8 |
| 20260902083048 | 64 | 261 | 0.0 | 0.9 | 0.00 | 0.00 | 0.00 | 75 | 1018.8 |
| 20260902081503 | 63 | 248 | 0.0 | 0.9 | 0.00 | 0.00 | 0.00 | 79 | 1019.0 |
| 20260902080046 | 62 | 250 | 0.0 | 0.9 | 0.00 | 0.00 | 0.00 | 83 | 1019.1 |
| 20260902074619 | 61 | 252 | 0.0 | 0.9 | 0.00 | 0.00 | 0.00 | 83 | 1019.2 |